Temperature
9 9 8 8 8 8 7 7 7 7 6 6 5 5 5 5 5 5 5 5 5 5 5 6 6 6 6 6 6 6 6 8 9 10 10 11 11 11 12 13 13 14 14
10 9 8 8 8 8 8 7 7 7 6 6 5 5 5 4 4 4 4 4 4 5 5 5 5 5 5 6 6 6 6 8 9 10 10 10 10 10 11 11 12 12 13
9 9 8 8 8 8 8 7 7 6 6 5 5 4 4 4 4 4 4 4 4 4 4 4 4 5 5 5 5 5 6 8 9 9 9 9 10 9 9 9 10 11 12
9 9 9 8 8 8 8 7 6 6 5 5 5 4 4 4 4 3 3 3 3 3 3 3 4 4 4 4 5 5 5 7 9 9 9 9 9 8 7 7 8 9 10
9 9 8 8 8 8 7 7 6 5 5 5 4 4 4 3 3 3 3 3 3 3 3 3 3 3 4 4 4 5 5 7 8 8 8 8 8 8 6 6 6 7 8
9 8 8 8 8 8 7 7 6 6 5 5 5 5 4 4 4 3 3 3 2 2 2 2 2 3 3 4 4 4 5 7 7 7 8 8 7 7 5 5 5 5 6
9 8 8 8 8 8 7 7 6 6 5 5 5 5 5 4 4 4 3 2 2 2 2 2 2 3 3 4 4 4 5 6 6 6 7 7 6 5 4 4 3 3 4
8 8 8 7 8 7 7 7 6 6 6 5 5 5 5 5 4 4 3 3 3 3 3 3 3 3 4 4 3 3 4 4 5 5 5 5 5 4 3 3 3 3 2
8 8 8 8 8 7 7 7 7 6 6 6 6 5 5 5 4 4 4 3 3 3 3 3 4 4 4 3 3 3 3 3 3 3 3 4 4 3 3 2 2 2 2
8 8 8 8 8 7 7 7 7 7 6 6 5 5 5 4 4 4 4 3 3 3 3 3 3 3 3 3 2 2 2 2 2 2 2 2 2 1 1 1 1 1 1
8 8 7 7 7 7 7 7 7 6 6 6 5 5 5 4 4 4 4 3 3 3 3 3 3 2 2 2 1 1 1 0 -0 -0 -0 -0 -0 -1 -1 -1 -1 -1 -1
9 8 8 7 7 7 7 7 6 6 6 5 5 5 4 4 4 4 3 3 3 3 3 2 2 2 1 1 0 -1 -1 -2 -2 -2 -2 -2 -2 -3 -3 -3 -3 -3 -2
10 9 8 8 7 7 7 7 6 6 6 5 5 5 4 4 4 3 3 3 3 2 2 2 1 0 -0 -1 -1 -2 -3 -3 -4 -4 -4 -4 -4 -5 -5 -4 -4 -4 -4
10 9 8 8 7 7 7 6 6 6 6 5 5 5 4 4 3 3 3 2 2 2 1 1 0 -1 -1 -2 -3 -3 -4 -5 -5 -5 -5 -5 -6 -6 -6 -6 -5 -5 -5
10 9 8 8 7 7 7 6 6 6 6 5 5 5 4 4 3 3 2 2 1 1 0 -0 -1 -2 -3 -3 -4 -5 -5 -5 -6 -6 -6 -6 -7 -7 -7 -7 -6 -6 -5
11 10 9 8 7 7 7 6 6 6 5 5 5 4 4 3 3 2 2 1 1 0 -0 -1 -2 -3 -4 -4 -5 -5 -5 -6 -6 -6 -7 -7 -7 -7 -7 -8 -7 -7 -6
12 10 9 8 7 7 7 6 6 6 5 5 5 4 4 3 3 2 1 1 0 -0 -1 -2 -3 -3 -4 -5 -5 -5 -6 -6 -6 -7 -7 -7 -7 -7 -8 -8 -8 -7 -7
11 10 9 8 8 7 7 6 6 5 5 5 4 4 3 3 2 2 1 1 -0 -1 -2 -2 -3 -3 -4 -5 -5 -5 -5 -6 -6 -7 -7 -7 -8 -8 -8 -8 -9 -8 -8
11 10 9 9 8 8 7 6 5 5 5 5 4 4 3 3 2 2 1 0 -0 -1 -2 -3 -3 -4 -4 -5 -6 -5 -5 -6 -6 -6 -7 -8 -8 -8 -8 -8 -9 -9 -9
11 10 9 9 8 7 6 6 5 5 5 5 4 4 3 3 2 1 1 0 -0 -1 -2 -3 -3 -4 -5 -6 -6 -6 -5 -5 -6 -6 -7 -8 -8 -8 -9 -9 -9 -9 -9
12 11 10 9 8 7 7 6 6 6 5 5 4 4 3 3 2 1 1 0 -1 -1 -2 -3 -3 -4 -4 -6 -6 -6 -5 -5 -6 -7 -7 -8 -8 -8 -9 -9 -9 -9 -9
13 12 11 10 10 9 8 7 6 6 5 4 4 3 3 3 2 1 1 0 -1 -1 -2 -3 -4 -4 -4 -6 -7 -9 -9 -8 -8 -8 -8 -8 -8 -9 -9 -9 -9 -10 -10
14 14 13 13 11 10 9 7 6 5 5 4 4 4 3 3 2 1 1 -0 -1 -1 -2 -3 -4 -5 -5 -6 -7 -9 -10 -10 -10 -9 -8 -9 -9 -9 -9 -9 -10 -10 -10
16 15 14 14 12 11 10 8 7 6 6 6 5 4 3 2 2 1 1 -0 -1 -1 -2 -3 -4 -5 -6 -6 -7 -8 -9 -10 -11 -11 -10 -9 -10 -10 -10 -10 -10 -10 -10
17 16 15 14 13 12 11 10 8 7 7 6 5 4 3 2 2 1 0 -0 -1 -1 -2 -3 -4 -5 -6 -7 -7 -8 -9 -10 -10 -12 -12 -10 -10 -10 -10 -10 -10 -10 -10
18 17 16 15 14 13 12 11 9 8 7 6 5 4 3 3 2 1 0 -0 -1 -1 -2 -3 -4 -5 -6 -7 -7 -8 -9 -10 -10 -11 -12 -11 -11 -10 -10 -10 -10 -10 -10
Wind_Speed
4 4 6 8 8 8 9 9 10 12 13 14 15 16 17 18 19 20 21 22 23 24 25 26 27 27 28 28 29 29 29 29 30 29 30 30 30 30 30 30 30 26 30
8 6 9 9 8 8 8 9 9 10 12 13 14 15 16 17 18 19 20 21 22 23 24 25 26 27 27 28 28 28 29 29 29 29 28 28 29 28 30 30 30 27 30
9 8 9 10 9 8 8 8 9 9 11 12 13 14 15 16 17 18 19 20 21 22 23 24 25 26 26 27 27 28 28 28 29 28 26 24 25 26 29 29 29 30 30
11 11 9 11 10 8 8 8 8 9 10 11 12 13 14 15 16 17 18 19 20 20 21 22 23 24 25 26 26 27 27 27 28 27 22 23 23 25 28 29 29 30 30
12 12 9 12 10 9 8 7 7 8 9 11 12 13 13 14 15 16 16 17 18 19 20 21 22 23 24 25 25 26 27 26 26 24 22 22 22 25 28 28 28 29 29
11 11 9 12 10 9 8 7 7 8 9 10 11 12 12 13 14 14 15 16 17 17 18 19 20 21 22 24 25 26 26 26 24 22 21 22 21 26 28 28 28 28 29
10 10 8 12 11 9 8 7 7 7 8 9 10 11 12 12 13 13 14 14 15 16 17 18 19 21 22 23 24 25 26 26 25 23 22 22 22 28 29 29 29 28 28
13 10 7 12 11 9 8 7 7 7 8 9 10 10 11 11 12 12 13 13 14 15 16 18 19 20 21 22 23 24 24 24 24 23 22 23 26 30 30 29 29 29 29
13 11 7 8 9 9 7 8 7 7 8 8 9 10 10 11 11 12 12 13 13 14 16 17 19 20 21 21 22 22 22 22 22 20 20 21 27 30 30 30 30 30 30
9 11 10 10 10 9 7 7 8 7 8 8 8 9 10 10 10 11 11 12 13 14 15 16 18 19 19 20 21 21 21 20 21 19 18 20 27 29 30 30 30 31 31
7 8 11 11 11 11 9 8 8 8 8 8 8 8 9 9 9 9 10 11 12 13 14 15 17 18 18 19 20 20 20 19 21 19 18 23 27 28 29 30 30 31 31
11 8 11 13 14 13 11 10 10 9 9 9 8 8 8 8 7 7 9 10 11 12 13 14 15 16 17 18 18 18 18 19 18 18 18 25 26 27 28 29 29 30 31
10 9 11 15 16 15 13 12 12 11 10 10 9 9 8 7 5 6 7 8 9 10 11 12 14 14 14 15 15 16 16 17 17 17 19 22 24 26 27 28 29 30 31
10 11 10 17 16 16 16 14 14 13 12 11 11 10 9 7 5 3 3 4 6 7 8 9 10 11 12 13 14 14 16 16 16 16 17 21 23 24 26 28 29 30 31
14 14 12 17 17 17 16 14 14 15 14 14 13 13 11 9 7 4 2 1 2 4 5 6 7 9 10 12 13 13 15 17 18 17 17 20 22 23 25 27 29 30 32
17 16 13 15 19 18 16 15 15 17 16 15 15 15 14 11 9 7 4 3 3 3 4 6 7 8 10 11 12 14 16 18 17 18 18 19 20 22 24 26 28 30 32
16 15 15 15 18 18 17 17 16 18 17 16 16 16 15 14 12 9 7 6 6 6 6 7 9 9 8 9 10 13 15 16 16 18 19 18 18 20 23 26 28 30 32
14 15 16 16 16 17 17 17 16 18 18 17 17 17 17 16 14 12 9 9 9 8 7 7 7 4 5 5 5 9 12 14 16 18 17 17 17 17 20 25 27 29 32
17 16 17 15 15 16 17 16 16 17 17 18 18 18 18 18 17 14 12 11 10 8 8 7 5 4 5 6 7 7 9 11 14 16 15 16 17 17 19 21 26 29 31
15 16 17 17 14 13 13 10 9 9 13 16 17 18 19 18 18 16 13 13 11 8 6 6 5 5 5 6 8 9 8 10 13 12 13 14 15 17 19 20 22 24 29
15 17 18 18 15 12 7 7 6 6 6 8 16 19 20 19 19 17 12 12 11 7 6 6 4 5 4 4 4 6 8 9 9 7 10 11 13 17 18 19 20 21 23
19 19 19 20 18 17 13 8 5 5 5 7 13 17 20 20 19 16 15 11 11 7 6 6 5 3 4 3 2 4 5 4 4 7 7 7 9 14 15 19 20 22 23
20 22 20 21 20 18 14 7 4 3 2 5 7 9 17 20 20 18 16 14 12 9 7 7 7 6 5 4 4 3 3 5 8 5 7 8 8 7 10 16 20 21 23
22 19 19 19 19 17 16 15 14 13 12 11 8 9 12 19 19 19 17 16 13 11 7 8 7 6 6 5 4 6 6 6 5 7 6 5 7 9 9 14 17 21 23
17 16 17 17 18 18 19 20 19 17 12 6 6 9 10 12 17 18 17 16 13 11 10 9 7 7 6 6 5 5 6 7 8 8 14 13 9 7 8 9 13 18 22
12 14 15 17 19 18 20 20 21 20 14 10 10 11 10 8 10 15 16 15 14 12 11 10 9 8 8 8 7 6 6 6 7 8 11 16 17 12 9 8 10 14 19
Wind_Direction
199 189 146 120 103 87 73 63 56 50 46 43 41 39 38 37 36 34 32 31 31 29 29 28 28 28 28 27 26 25 27 28 26 21 15 10 6 6 7 6 5 0 359
158 151 141 125 112 96 82 71 62 56 50 46 43 41 40 39 37 34 33 32 31 30 29 28 28 28 27 25 24 24 26 27 24 20 16 9 3 3 4 4 2 359 358
136 125 128 131 120 107 93 80 70 62 55 50 46 43 41 40 38 35 34 32 31 30 29 28 27 27 25 24 23 23 25 27 22 19 15 7 359 360 2 1 360 358 356
137 128 130 137 128 117 104 89 77 68 60 54 50 45 42 41 39 35 34 32 31 30 29 28 27 26 24 23 22 22 24 26 21 18 13 5 357 356 1 360 358 355 353
141 140 151 142 135 126 113 99 85 75 66 60 54 48 44 43 41 36 34 32 31 29 28 28 27 26 24 22 21 21 21 24 21 16 9 1 352 353 358 357 356 353 350
147 150 164 149 143 135 125 111 96 82 73 66 60 52 46 44 42 36 34 32 31 29 28 28 27 26 24 21 20 19 19 20 20 11 5 359 347 350 355 354 352 350 347
154 156 167 157 153 146 137 124 108 94 82 73 67 57 49 46 43 36 34 33 31 30 28 27 26 25 23 20 19 17 16 16 14 6 360 354 342 350 350 350 348 347 344
158 158 160 166 159 154 146 137 121 106 94 83 76 65 55 48 43 38 33 34 32 30 28 27 25 24 22 19 17 15 15 15 9 2 355 348 343 346 346 346 345 342 340
162 157 149 137 147 153 151 147 135 121 107 94 85 75 62 52 44 39 31 33 32 30 27 26 24 22 20 17 13 12 11 10 6 358 352 342 340 341 341 341 340 338 336
170 166 159 148 145 142 140 150 144 133 122 108 97 88 74 63 50 39 29 31 32 30 27 25 23 20 18 13 9 7 7 5 359 354 346 336 337 337 336 336 335 334 332
188 183 172 165 163 161 152 147 145 139 133 121 111 103 95 86 67 42 32 33 32 31 27 25 21 19 16 11 6 3 2 356 351 346 339 332 333 332 332 331 330 329 328
194 193 187 178 174 171 165 159 152 147 144 140 136 128 115 101 82 58 41 35 34 32 28 24 20 18 13 6 360 356 350 343 341 336 330 329 328 328 327 326 326 325 324
192 191 189 187 183 179 173 169 167 164 162 161 158 152 141 125 101 76 57 45 40 34 30 21 17 11 3 355 345 339 332 329 324 321 319 322 323 323 323 322 322 321 320
188 197 189 190 187 187 182 179 179 177 177 179 179 173 163 153 140 114 75 45 35 27 19 10 1 352 345 337 328 320 315 312 309 307 308 317 319 319 319 319 319 318 317
198 199 193 190 191 189 186 185 188 188 189 191 189 188 183 173 171 169 161 53 9 1 352 341 333 327 320 315 310 304 301 300 299 298 299 310 316 317 317 317 316 316 315
203 201 194 193 195 191 190 192 193 194 195 194 196 196 194 189 184 184 195 224 265 285 293 295 295 294 292 292 289 289 290 290 290 293 295 301 309 315 316 315 314 313 312
202 198 195 197 196 194 196 198 199 197 196 197 201 202 200 198 195 194 201 223 244 257 268 275 280 278 276 276 276 282 282 280 283 288 292 293 296 307 313 315 313 311 310
197 197 199 200 196 199 199 200 198 198 198 201 204 204 204 204 203 200 205 224 239 245 252 258 261 259 261 266 269 274 275 275 279 284 286 288 292 297 303 312 312 312 310
200 198 198 200 195 198 199 199 200 198 200 204 204 205 206 207 207 205 211 226 235 235 241 250 250 233 257 269 272 267 262 265 273 280 280 284 289 293 295 305 310 312 310
200 200 202 202 198 191 189 189 194 202 208 206 204 206 207 207 208 208 213 225 229 227 234 237 249 249 246 262 281 282 269 265 266 265 269 280 287 292 296 297 300 304 307
200 202 203 203 198 185 179 185 189 207 205 205 209 208 207 207 207 205 209 217 219 217 224 226 236 260 261 252 274 285 274 257 249 251 257 268 279 285 289 292 296 298 299
206 206 205 206 200 197 197 183 177 177 194 205 206 208 208 206 205 206 208 211 215 216 224 227 217 239 259 258 265 307 313 295 247 252 250 262 271 278 286 293 295 295 295
209 208 208 207 203 200 190 169 150 143 154 181 200 206 206 204 203 204 206 209 213 211 220 224 216 221 245 251 207 225 283 294 308 260 240 258 261 267 277 287 290 293 297
214 208 208 204 203 198 188 190 191 199 206 203 195 197 197 200 202 205 208 210 212 213 216 225 222 215 224 249 236 221 223 238 284 302 282 257 257 272 273 287 291 291 292
211 205 205 203 203 198 196 200 203 212 213 185 180 187 194 199 203 205 208 209 211 214 218 222 223 221 220 233 235 231 239 245 236 263 293 299 287 262 264 270 280 284 288
202 201 199 202 206 200 200 204 208 212 203 188 191 195 198 199 203 207 208 209 212 215 219 223 224 226 228 233 239 236 236 242 249 252 276 292 297 292 271 266 273 278 283
Height
1590 1592 1594 1594 1595 1594 1594 1593 1593 1592 1591 1590 1589 1588 1586 1585 1583 1581 1579 1578 1576 1575 1573 1572 1570 1568 1567 1565 1563 1561 1559 1557 1556 1556 1556 1556 1556 1556 1555 1555 1554 1554 1554
1588 1591 1592 1593 1594 1594 1593 1593 1592 1591 1590 1589 1589 1587 1586 1585 1583 1581 1580 1578 1576 1575 1573 1572 1570 1568 1566 1564 1562 1560 1558 1556 1555 1554 1554 1555 1555 1554 1554 1553 1553 1552 1552
1587 1589 1591 1592 1593 1593 1593 1592 1592 1591 1590 1589 1588 1587 1586 1585 1583 1581 1580 1578 1576 1574 1573 1571 1569 1567 1565 1563 1562 1560 1557 1555 1554 1553 1553 1552 1552 1552 1552 1551 1551 1550 1550
1586 1588 1590 1591 1591 1592 1592 1591 1591 1590 1590 1589 1588 1586 1585 1584 1582 1581 1579 1578 1576 1574 1572 1571 1569 1567 1565 1563 1561 1559 1556 1553 1552 1551 1551 1550 1549 1549 1549 1548 1548 1548 1547
1584 1587 1588 1590 1590 1591 1591 1590 1590 1590 1589 1588 1587 1585 1584 1583 1582 1580 1579 1577 1576 1574 1572 1570 1568 1566 1564 1562 1560 1558 1555 1552 1551 1550 1549 1548 1547 1547 1546 1546 1545 1544 1544
1583 1585 1587 1588 1589 1589 1590 1589 1589 1589 1588 1587 1586 1584 1583 1582 1580 1579 1578 1576 1575 1573 1571 1569 1567 1565 1563 1561 1560 1558 1555 1553 1551 1550 1548 1547 1545 1545 1544 1543 1542 1541 1541
1581 1584 1585 1587 1587 1588 1588 1588 1588 1587 1587 1585 1584 1583 1582 1581 1579 1578 1577 1575 1574 1572 1570 1568 1567 1564 1563 1561 1559 1557 1555 1553 1552 1550 1548 1546 1544 1543 1542 1541 1539 1538 1537
1580 1582 1584 1585 1586 1586 1587 1587 1587 1586 1585 1584 1583 1582 1581 1580 1578 1577 1575 1574 1572 1571 1569 1568 1566 1564 1562 1560 1558 1556 1554 1552 1551 1549 1548 1546 1544 1542 1540 1538 1536 1534 1532
1578 1580 1582 1583 1584 1585 1585 1585 1585 1584 1583 1582 1581 1581 1579 1578 1577 1575 1574 1573 1571 1570 1568 1567 1565 1563 1562 1560 1558 1555 1553 1551 1549 1547 1545 1544 1542 1540 1538 1536 1534 1531 1529
1576 1578 1579 1581 1582 1583 1583 1583 1583 1583 1582 1581 1580 1579 1578 1577 1575 1574 1573 1571 1570 1568 1567 1566 1564 1562 1560 1558 1556 1554 1552 1549 1547 1545 1543 1540 1539 1537 1535 1532 1530 1527 1525
1572 1574 1576 1578 1580 1581 1581 1581 1581 1581 1580 1579 1578 1577 1576 1575 1574 1572 1571 1569 1568 1567 1565 1564 1562 1560 1558 1557 1554 1552 1549 1547 1544 1542 1540 1537 1535 1533 1531 1529 1526 1524 1521
1567 1570 1573 1575 1577 1578 1578 1579 1579 1578 1578 1577 1576 1575 1574 1573 1572 1570 1569 1567 1566 1565 1563 1561 1559 1557 1555 1553 1551 1548 1546 1543 1540 1538 1535 1533 1531 1529 1527 1525 1522 1519 1517
1564 1567 1569 1571 1573 1574 1575 1576 1576 1576 1575 1574 1573 1572 1571 1570 1569 1568 1566 1565 1564 1562 1560 1558 1556 1554 1551 1549 1547 1544 1541 1538 1536 1533 1530 1528 1526 1524 1522 1520 1517 1514 1512
1560 1563 1566 1567 1569 1571 1572 1572 1572 1572 1572 1571 1570 1569 1568 1567 1566 1565 1563 1562 1560 1559 1557 1555 1552 1550 1547 1544 1542 1539 1536 1533 1530 1527 1525 1522 1520 1518 1516 1514 1512 1509 1506
1555 1558 1561 1563 1565 1566 1567 1568 1568 1569 1568 1568 1567 1566 1565 1564 1563 1561 1560 1558 1556 1554 1552 1550 1547 1545 1542 1540 1537 1534 1531 1528 1525 1523 1520 1517 1514 1512 1510 1508 1506 1503 1500
1550 1553 1556 1558 1560 1561 1562 1563 1564 1565 1564 1564 1563 1562 1561 1560 1559 1558 1556 1554 1552 1550 1547 1545 1542 1540 1537 1534 1532 1529 1526 1523 1520 1517 1514 1511 1509 1506 1504 1502 1500 1497 1494
1545 1548 1550 1553 1555 1556 1557 1558 1559 1560 1560 1559 1559 1558 1557 1556 1555 1553 1551 1549 1547 1545 1542 1540 1537 1534 1532 1529 1526 1524 1521 1518 1515 1512 1509 1506 1503 1500 1498 1495 1493 1491 1488
1539 1542 1545 1547 1548 1550 1552 1553 1554 1554 1554 1554 1554 1553 1552 1551 1550 1548 1547 1545 1542 1540 1537 1535 1532 1530 1527 1524 1521 1518 1516 1512 1509 1506 1503 1500 1497 1494 1491 1488 1486 1484 1481
1533 1536 1538 1540 1542 1544 1546 1547 1548 1548 1549 1549 1548 1548 1547 1546 1545 1543 1542 1540 1537 1535 1533 1530 1527 1525 1521 1518 1515 1512 1509 1506 1504 1501 1498 1495 1492 1489 1486 1482 1479 1476 1472
1526 1529 1531 1533 1535 1538 1540 1541 1541 1541 1542 1542 1542 1542 1541 1540 1539 1538 1536 1535 1532 1530 1528 1525 1523 1520 1517 1513 1509 1506 1503 1500 1497 1494 1492 1489 1486 1483 1480 1476 1472 1468 1464
1518 1520 1522 1524 1526 1529 1530 1531 1532 1532 1535 1535 1536 1536 1535 1534 1533 1532 1531 1529 1527 1525 1523 1521 1518 1516 1513 1509 1503 1497 1494 1492 1489 1487 1485 1483 1480 1477 1474 1470 1466 1461 1456
1509 1511 1513 1515 1517 1519 1521 1523 1525 1526 1527 1529 1529 1529 1528 1528 1527 1526 1525 1523 1521 1519 1518 1515 1513 1510 1508 1505 1500 1493 1487 1483 1480 1480 1478 1475 1473 1470 1467 1463 1459 1455 1450
1501 1503 1504 1507 1509 1511 1513 1516 1517 1518 1518 1519 1520 1521 1521 1521 1520 1519 1518 1517 1516 1514 1512 1510 1508 1505 1503 1501 1498 1495 1489 1480 1475 1469 1469 1467 1465 1462 1459 1456 1451 1447 1443
1494 1496 1498 1499 1501 1503 1505 1506 1506 1506 1507 1509 1512 1514 1514 1513 1513 1512 1512 1511 1509 1508 1506 1505 1503 1500 1497 1495 1493 1490 1488 1483 1477 1466 1461 1460 1458 1454 1451 1448 1444 1440 1435
1488 1489 1490 1492 1493 1494 1495 1496 1497 1498 1499 1502 1504 1505 1506 1505 1505 1505 1504 1503 1502 1501 1500 1498 1497 1494 1492 1489 1487 1484 1482 1479 1475 1469 1457 1451 1448 1446 1443 1440 1436 1431 1427
1481 1482 1482 1483 1484 1485 1486 1486 1487 1488 1490 1492 1494 1496 1497 1497 1497 1497 1497 1496 1495 1494 1493 1492 1490 1488 1486 1483 1481 1478 1476 1473 1469 1465 1456 1447 1440 1435 1434 1431 1428 1424 1420